Regional Weather Roundup
Issued by NWS

Home | Current Version | Previous Version | Graphics & Text | Print | Product List | Glossary On
Versions: 1 2 3 4 5 6 7 8 9 10 11 12 13 14 15 16 17 18 19 20 21 22 23 24 25 26 27 28 29 30 31 32 33 34 35 36 37 38 39 40 41 42 43 44 45 46 47 48 49 50
000
ASUS43 KFSD 191610
RWRSD

WEATHER ROUNDUP FOR SOUTH DAKOTA
NATIONAL WEATHER SERVICE SIOUX FALLS SD
1000 AM CST THU JAN 19 2017

NOTE: "FAIR" INDICATES FEW OR NO CLOUDS BELOW 12,000 FEET WITH NO
SIGNIFICANT WEATHER AND/OR OBSTRUCTIONS TO VISIBILITY.


SDZ001>005-009-010-012>017-191700-
NORTHWEST AND NORTH CENTRAL SOUTH DAKOTA

CITY           SKY/WX    TMP DP  RH WIND       PRES   REMARKS
BUFFALO          N/A     31  18  58 NW6       29.43S WCI  25
FAITH            N/A     23  18  81 W6        29.49F WCI  16
MOBRIDGE       CLOUDY    13   8  81 CALM      29.52R
$$

SDZ012>016-024>037-041>051-057-063-072>074-191700-
SOUTHWEST AND SOUTH CENTRAL SOUTH DAKOTA

CITY           SKY/WX    TMP DP  RH WIND       PRES   REMARKS
RAPID CTY ARPT CLOUDY    34  19  54 NW7       29.49S WCI  28
PIERRE         CLOUDY    12  11  95 CALM      29.55S
CUSTER         CLOUDY    44  13  28 W5        29.53S
ELLSWORTH AFB  CLOUDY    28  19  69 W3        29.49R
PHILIP         CLOUDY    13  10  88 W7        29.53S WCI   3
PINE RIDGE     CLOUDY    35  21  56 W5        29.53S
SPEARFISH      FAIR      37  19  48 CALM      29.51S
WINNER         FAIR      38  30  73 S15       29.56S
$$

SDZ004>011-016>023-039-040-191700-
NORTHEAST SOUTH DAKOTA

CITY           SKY/WX    TMP DP  RH WIND       PRES   REMARKS
ABERDEEN       CLOUDY    30  26  85 S12       29.59S FOG     WCI  20
WATERTOWN      SUNNY     31  31 100 S16       29.62F WCI  20
BROOKINGS      SUNNY     36  34  92 S12       29.67F
SISSETON         N/A     34  33  96 S13       29.61S WCI  25
$$

SDZ017-020-022-023-036>040-048>070-191700-
SOUTHEAST SOUTH DAKOTA

CITY           SKY/WX    TMP DP  RH WIND       PRES   REMARKS
SIOUX FALLS    FOG       35  35 100 S12       29.71S VSB 1/4 WCI  27
HURON          PTSUNNY   35  34  96 S15G24    29.61S WCI  25
CHAMBERLAIN    CLOUDY    38  36  91 SE9       29.58R
MITCHELL       FOG       34  34 100 S16       29.66S VSB 1/4 WCI  24
YANKTON        CLOUDY    36  34  93 S10       29.70S
$$

ABBREVIATIONS USED IN REMARKS
   TC - TEMPERATURE IN CELSIUS
  WCI - WIND CHILL INDEX
   HX - HEAT INDEX
  VSB - VISIBILITY





USA.gov is the U.S. government's official web portal to all federal, state and local government web resources and services.